User: anonymous   Login
Location: Brunembert
(50.7122°N, 1.8935°E)
Time: 07:40:34
(UTC+00:00)
Language:

Cosmos 841 Rocket - Orbit

View from above orbital plane
View from above orbital plane
View from above satellite
View from above satellite

Ground track
Ground track

The orbit data is extracted from the following two-line orbital elements,

1 09023U 76069B   21166.76967591  .00000017  00000-0  13851-4 0  9998
2 09023  74.0437 282.6765 0016546  86.8579 273.4469 14.39684342354575
Epoch (UTC): 15 June 2021 18:28:19
Eccentricity: 0.0016546
inclination: 74.0437°
perigee height: 748 km
apogee height: 771 km
right ascension of ascending node: 282.6765°
argument of perigee: 86.8579°
revolutions per day: 14.39684342
mean anomaly at epoch: 273.4469°
orbit number at epoch: 35457

The dashed part of the orbit path shows where the satellite is in the earth's shadow,  

DLR